"TOA5","AWS1","CR1000","7964","CR1000.Std.14","CPU:AWS1_114.CR1","64363","TBL110"
"TIMESTAMP","RECORD","Wind_spd_WVc(1)","Wind_spd_WVc(2)","Air_Temp_Avg","Humidity_Avg","SW_upper_Wm2_Avg","Rain_Tot","Press_Avg","Issui_Tot","Depth_cm","SR50A_Raw","Quality","Ground_Temp_Avg(1)","Ground_Temp_Avg(2)","SW_lower_Wm2_Avg","Albedo_Avg","SWC_per(1)","SWC_per(2)","Period(1)","Period(2)"
"TS","RN","","","","","","","","","","","","","","","","","","",""
"","","WVc","WVc","Avg","Avg","Avg","Tot","Avg","Tot","Smp","Smp","Smp","Avg","Avg","Avg","Avg","Smp","Smp","Smp","Smp"
"2017-02-21 00:00:00",276109,0,0,-7.149,100,0.216387,0,854.1047,0,106,2.148,176,1.026,1.688,0.003793424,0.016,52.83,60.92,33.99,35.89
"2017-02-21 00:10:00",276110,0,0,-7.236,100,0.1416353,0,854.0195,0,106.3,2.146,181,1.026,1.666,0.01138028,0.016,52.88,60.92,34,35.89
"2017-02-21 00:20:00",276111,0,0,-7.291,100,0.1062265,0,854.0135,0,106.2,2.147,181,1.026,1.652,0.05310798,0.048,52.88,60.92,34,35.89
"2017-02-21 00:30:00",276112,0,0,-7.276,100,0,0,853.9904,0.5,106.3,2.146,199,1.026,1.653,0.1024225,0,52.88,60.92,34,35.89
"2017-02-21 00:40:00",276113,0,0,-7.288,100,0,0,854.0156,0,107,2.139,197,1.026,1.657,0.0569014,0,52.88,60.92,34,35.89
"2017-02-21 00:50:00",276114,0,0,-7.289,100,0,0,854.1443,0,107.2,2.137,200,1.026,1.667,0.1403568,0,52.88,60.92,34,35.89
"2017-02-21 01:00:00",276115,0,0,-7.247,100,0,0,854.1569,0.5,108.4,2.124,294,1.026,1.669,0.1251831,0,52.88,60.92,34,35.89
"2017-02-21 01:10:00",276116,0,0,-7.222,100,0,0,854.3002,0,108,2.129,200,1.026,1.671,0.1289765,0,52.88,60.92,34,35.89
"2017-02-21 01:20:00",276117,0,0,-7.308,100,0,0,854.3277,0,107.5,2.134,211,1.026,1.672,0.01138028,0,52.88,60.98,34,35.9
"2017-02-21 01:30:00",276118,0,0,-7.233,100,0,0,854.5132,0.5,108.8,2.12,191,1.026,1.674,0.0834554,0,52.88,60.98,34,35.9
"2017-02-21 01:40:00",276119,0,0,-7.196,100,0,0,854.5533,0,109,2.118,209,1.026,1.672,0.1593239,0,52.88,60.98,34,35.9
"2017-02-21 01:50:00",276120,0,0,-7.066,100,0,0,854.6165,0.5,108.6,2.122,268,1.026,1.675,0.2276056,0,52.88,60.98,34,35.9
"2017-02-21 02:00:00",276121,0,0,-6.964,100,0,0,854.9138,0.5,108.6,2.121,217,1.026,1.664,0.2276056,0,52.94,60.98,34.02,35.9
"2017-02-21 02:10:00",276122,0,0,-6.922,99.4,0,0,855.1247,0.5,111.3,2.094,175,1.026,1.635,0.2276056,0,52.94,60.98,34.02,35.9
"2017-02-21 02:20:00",276123,0,0,-6.905,97.8,0.05114608,0,855.3903,0,111.6,2.091,187,1.026,1.605,0.1251831,0.016,52.94,60.98,34.02,35.9
"2017-02-21 02:30:00",276124,0,0,-6.982,96.2,0.2203216,0,855.5463,0,112.1,2.086,191,1.028,1.595,0,0,52.88,60.98,34,35.9
"2017-02-21 02:40:00",276125,0,0,-7.137,94.2,0.2360588,0,855.6729,0.5,112.3,2.085,190,1.031,1.591,0,0,52.88,60.98,34,35.9
"2017-02-21 02:50:00",276126,0,0,-7.197,94.7,0.2203216,0,855.9912,0,111.4,2.094,203,1.035,1.592,0,0,52.88,60.98,34,35.9
"2017-02-21 03:00:00",276127,0,0,-7.256,95.6,0.1455696,0,856.2801,0,112.6,2.082,192,1.011,1.592,0,0,52.88,61.04,34,35.92
"2017-02-21 03:10:00",276128,0,0,-7.232,94.7,0.03934313,0,856.5204,0.5,112.6,2.082,191,1.026,1.589,0,0,52.94,61.04,34.02,35.92
"2017-02-21 03:20:00",276129,0,0,-7.26,95.2,0,0,856.552,0,112.6,2.082,180,1.036,1.59,0.003793427,0,52.88,61.04,34,35.92
"2017-02-21 03:30:00",276130,0,0,-7.243,95.5,0,0,856.5457,0,112.8,2.08,190,1.028,1.589,0.02276056,0,52.88,61.04,34,35.92
"2017-02-21 03:40:00",276131,0,0,-7.292,94.8,0.1062265,0,856.8704,0.5,112.8,2.08,178,1.025,1.592,0,0,52.94,61.04,34.02,35.92
"2017-02-21 03:50:00",276132,0,0,-7.45,94.1,0.236059,0,857.2886,0,112.8,2.081,190,0.982,1.606,0,0,52.94,61.04,34.02,35.92
"2017-02-21 04:00:00",276133,0,0,-7.748,92.4,0.5665578,0,857.5478,0,112.4,2.086,178,0.992,1.622,0,0,52.94,61.04,34.02,35.92
"2017-02-21 04:10:00",276134,0,0,-7.993,91.9,0.3619816,0,857.6453,0,112.2,2.089,194,0.976,1.65,0,0,52.94,61.04,34.02,35.92
"2017-02-21 04:20:00",276135,0,0,-8.01,92.1,0.2360994,0,857.9225,0.5,112,2.091,187,0.949,1.674,0,0,52.94,61.04,34.02,35.92
"2017-02-21 04:30:00",276136,0,0,-8.02,92.2,0.2243095,0,858.2405,0,112.3,2.088,194,0.96,1.704,0,0,52.94,61.04,34.02,35.92
"2017-02-21 04:40:00",276137,0,0,-8.02,92.3,0.06296667,0,858.4376,0,112.2,2.089,183,0.973,1.72,0,0,52.94,61.04,34.02,35.92
"2017-02-21 04:50:00",276138,0,0,-8,92,0,0,858.5651,0,112.1,2.09,191,0.981,1.738,0,0,52.94,61.04,34.02,35.92
"2017-02-21 05:00:00",276139,0,0,-8.01,92.7,0,0,858.649,0,111.9,2.092,192,0.985,1.753,0,0,52.94,61.04,34.02,35.92
"2017-02-21 05:10:00",276140,0,0,-8.01,93,0,0,858.7555,0.5,112.8,2.083,179,0.988,1.756,0,0,52.94,61.04,34.02,35.92
"2017-02-21 05:20:00",276141,0,0,-8.01,92.7,0.01967829,0,858.9366,0,113.4,2.076,170,0.988,1.762,0,0,52.88,61.04,34,35.92
"2017-02-21 05:30:00",276142,0,0,-8.06,92.1,0.2243325,0,859.0699,0,113.3,2.078,192,0.988,1.763,0,0,52.94,61.04,34.02,35.92
"2017-02-21 05:40:00",276143,0,0,-8.04,92.9,0,0,859.2155,0.5,113.2,2.079,192,0.992,1.763,0.01517889,0,52.94,61.1,34.02,35.93
"2017-02-21 05:50:00",276144,0,0,-7.995,93.1,0,0,859.5508,0,113,2.081,194,1.005,1.763,0.1138417,0,52.94,61.1,34.02,35.93
"2017-02-21 06:00:00",276145,0,0,-7.979,94.4,0,0,859.7723,0,113.4,2.077,189,1.012,1.763,0.2238887,0,52.94,61.1,34.02,35.93
"2017-02-21 06:10:00",276146,0,0,-7.958,94.5,0,0,859.941,0,113.7,2.073,188,1.007,1.763,0.220094,0,52.94,61.1,34.02,35.93
"2017-02-21 06:20:00",276147,0,0,-7.956,94.8,0,0,860.1773,0,114.3,2.067,190,1.01,1.763,0.2276834,0,52.94,61.1,34.02,35.93
"2017-02-21 06:30:00",276148,0,0,-7.962,95.1,0.161362,0,860.3439,0.5,114.7,2.063,191,1.006,1.763,0.383267,1.318,52.94,61.1,34.02,35.93
"2017-02-21 06:40:00",276149,0,0,-7.977,93.1,0.2597534,0,860.5358,0.5,114.1,2.069,182,1.01,1.763,0.7247922,2.909,52.94,61.1,34.02,35.93
"2017-02-21 06:50:00",276150,0,0,-8.11,92.7,0.7084185,0,860.6771,0,114.5,2.066,194,1.005,1.763,1.331948,1.88,52.94,61.1,34.02,35.93
"2017-02-21 07:00:00",276151,0,0,-8.16,94.3,0.7320324,0,860.848,0.5,115.2,2.059,180,1.017,1.763,2.47416,3.402,52.94,61.1,34.02,35.93
"2017-02-21 07:10:00",276152,0,0,-8.15,93.4,1.680526,0,861.2023,0,116.2,2.049,175,1.012,1.763,5.468196,3.28,52.94,61.1,34.02,35.93
"2017-02-21 07:20:00",276153,0,0,-8.19,92.1,2.412559,0,861.4807,0.5,116.8,2.043,186,1.007,1.763,7.968919,3.298,52.94,61.1,34.02,35.93
"2017-02-21 07:30:00",276154,0,0,-8.29,91.8,3.29021,0,861.8161,0,114.9,2.063,201,1.022,1.763,10.5721,3.18,52.94,61.1,34.02,35.93
"2017-02-21 07:40:00",276155,0,0,-8.39,92.7,5.167519,0,862.1113,0.5,117.5,2.037,193,1.019,1.763,18.30954,3.473,52.94,61.1,34.02,35.93
"2017-02-21 07:50:00",276156,0,0,-8.4,91.3,6.670941,0,862.3856,0,117.5,2.037,194,1.024,1.763,22.99223,3.418,52.94,61.1,34.02,35.93
"2017-02-21 08:00:00",276157,0,0,-8.52,90.4,11.22843,0,862.6871,0,118,2.032,192,1.027,1.762,39.95464,3.528,52.94,61.1,34.02,35.93
"2017-02-21 08:10:00",276158,0,0,-8.55,88,14.08572,0,862.9276,0,117.8,2.034,192,1.026,1.762,49.82851,3.533,52.94,61.1,34.02,35.93
"2017-02-21 08:20:00",276159,0,0,-8.55,89.9,13.21594,0,863.1722,0.5,117.4,2.038,177,1.024,1.76,47.78695,3.615,53,61.1,34.03,35.93
"2017-02-21 08:30:00",276160,0,0,-8.54,90.9,12.38158,0,863.3895,0,117.5,2.037,174,1.029,1.758,44.24268,3.576,52.94,61.1,34.02,35.93
"2017-02-21 08:40:00",276161,0,0,-8.52,94.1,13.68822,0,863.5497,0,117.7,2.035,191,1.026,1.763,49.39971,3.609,52.94,61.1,34.02,35.93
"2017-02-21 08:50:00",276162,0,0,-8.39,93.6,16.86823,0,863.7016,0,117.5,2.037,190,1.015,1.763,60.21467,3.557,52.94,61.1,34.02,35.93
"2017-02-21 09:00:00",276163,0,0,-8.58,91,11.98014,0,863.9188,0,118.4,2.028,196,1.017,1.763,40.32653,3.356,52.94,61.1,34.02,35.93
"2017-02-21 09:10:00",276164,0,0,-8.47,91.8,21.95704,0,864.1804,0.5,118.3,2.029,194,1.01,1.763,79.38561,3.599,52.94,61.1,34.02,35.93
"2017-02-21 09:20:00",276165,0,0,-8.48,89.8,22.55919,0,864.231,0,119.4,2.018,186,0.991,1.763,81.76111,3.609,52.94,61.1,34.02,35.93
"2017-02-21 09:30:00",276166,0,0,-8.64,89.7,20.72124,0,864.2584,0.5,120,2.012,178,0.989,1.763,72.86248,3.502,52.94,61.1,34.02,35.93
"2017-02-21 09:40:00",276167,0,0,-8.72,89.6,22.77172,0,864.5495,0,119.9,2.013,190,0.99,1.763,80.31152,3.501,52.94,61.1,34.02,35.93
"2017-02-21 09:50:00",276168,0,0,-8.51,86.8,48.0229,0,864.7455,0,119.7,2.015,191,0.991,1.763,177.0163,3.687,52.94,61.1,34.02,35.93
"2017-02-21 10:00:00",276169,0,0,-8.46,87.4,40.49005,0,864.7393,0,119.6,2.016,174,0.986,1.757,148.8101,3.67,52.94,61.1,34.02,35.93
"2017-02-21 10:10:00",276170,0,0,-8.55,86,49.25476,0,864.9691,0.5,119.4,2.018,178,0.986,1.732,169.5444,3.434,52.94,61.1,34.02,35.93
"2017-02-21 10:20:00",276171,0,0,-8.43,88.7,56.97259,0,865.1569,0,119.1,2.02,190,0.989,1.72,166.3,2.917,52.94,61.1,34.02,35.93
"2017-02-21 10:30:00",276172,1.156,285.1,-8.13,88.5,66.66611,0,865.2539,0,119.4,2.016,187,1.025,1.714,199.5303,2.998,52.94,61.1,34.02,35.93
"2017-02-21 10:40:00",276173,0.982,261.8,-8.22,88.6,45.79138,0,865.5616,0,119.4,2.016,191,1.045,1.699,136.2495,2.977,52.94,61.1,34.02,35.93
"2017-02-21 10:50:00",276174,0.962,299.3,-8.27,88.5,56.46825,0,865.9035,0,118.7,2.023,174,1.048,1.679,174.8818,3.088,52.94,61.1,34.02,35.93
"2017-02-21 11:00:00",276175,1.228,296.5,-8.18,83.9,79.52858,0,865.6309,0,119.5,2.015,175,1.057,1.668,192.309,2.467,52.94,61.1,34.02,35.93
"2017-02-21 11:10:00",276176,1.06,297.1,-8.09,80.7,65.28617,0,865.6807,0,119.7,2.012,192,1.071,1.655,199.4914,3.093,52.94,61.1,34.02,35.93
"2017-02-21 11:20:00",276177,1.28,304.3,-7.971,80.1,79.62502,0,865.7991,0,119.4,2.016,191,1.047,1.643,218.3783,2.757,52.94,61.1,34.02,35.93
"2017-02-21 11:30:00",276178,1.248,285.1,-7.937,81.7,82.53624,0,865.6706,0,119,2.019,190,1.034,1.641,241.8071,2.914,52.94,61.1,34.02,35.93
"2017-02-21 11:40:00",276179,0.968,285.8,-7.873,81.4,82.66067,0,865.6634,0.5,119.1,2.017,190,1.027,1.636,269.2295,3.253,52.94,61.1,34.02,35.93
"2017-02-21 11:50:00",276180,1.064,309.3,-7.436,80.4,119.5641,0,865.648,0,118.7,2.02,190,0.991,1.662,357.8426,3.019,52.94,61.1,34.02,35.93
"2017-02-21 12:00:00",276181,1.274,286.3,-7.385,79.35,145.975,0,865.6604,0,118.4,2.023,191,0.984,1.702,376.6232,2.603,52.94,61.1,34.02,35.93
"2017-02-21 12:10:00",276182,0.796,213.3,-7.229,81.9,107.0724,0,865.6625,0,118.1,2.025,170,0.964,1.714,298.0156,2.826,52.94,61.1,34.02,35.93
"2017-02-21 12:20:00",276183,0.807,358.7,-6.796,76.91,145.9315,0,865.7312,0,118.1,2.026,187,1.007,1.682,382.1193,2.706,52.94,61.1,34.02,35.93
"2017-02-21 12:30:00",276184,0.88,286.7,-7.179,76.48,104.0482,0,865.8236,0,118,2.027,188,1.01,1.645,307.6504,2.982,52.94,61.1,34.02,35.93
"2017-02-21 12:40:00",276185,0.649,294,-7.403,78.6,61.25262,0,865.5853,0,117.9,2.029,188,0.981,1.661,194.0927,3.171,52.94,61.1,34.02,35.93
"2017-02-21 12:50:00",276186,1.172,284.6,-7.787,78.97,47.27282,0,865.5715,0,118.1,2.029,193,0.965,1.643,146.9945,3.1,52.94,61.1,34.02,35.93
"2017-02-21 13:00:00",276187,1.019,283.5,-7.846,81.2,107.9812,0,865.5803,0,117.2,2.035,197,0.953,1.635,318.7444,3.044,52.94,61.1,34.02,35.93
"2017-02-21 13:10:00",276188,1.199,291.1,-7.097,76.26,155.1564,0,865.74,0,117.6,2.03,176,0.976,1.632,445.3236,2.87,53,61.1,34.03,35.93
"2017-02-21 13:20:00",276189,0.956,324.9,-6.878,76.35,148.5839,0,866.0139,0,117.5,2.031,192,0.963,1.631,424.0331,2.859,52.94,61.1,34.02,35.93
"2017-02-21 13:30:00",276190,1.712,305.7,-7.079,77.79,105.0379,0,866.0687,0,117.5,2.032,173,0.985,1.629,315.5321,3.012,52.94,61.1,34.02,35.93
"2017-02-21 13:40:00",276191,1,333,-6.974,79.2,102.5715,0,866.0788,0,117.4,2.031,190,1.015,1.619,310.8777,3.058,52.94,61.1,34.02,35.93
"2017-02-21 13:50:00",276192,0.609,254.7,-7.364,82.9,36.77138,0,866.1053,0,117.5,2.033,191,1.012,1.6,118.7937,3.221,52.94,61.1,34.02,35.93
"2017-02-21 14:00:00",276193,1.488,262.1,-7.653,85.3,37.93611,0,866.2277,0,117.3,2.037,174,0.988,1.589,122.2908,3.219,52.94,61.04,34.02,35.92
"2017-02-21 14:10:00",276194,0.939,277.1,-7.892,83.3,64.27235,0,866.4333,0,117.4,2.037,185,0.98,1.582,178.1248,2.942,52.94,61.1,34.02,35.93
"2017-02-21 14:20:00",276195,1.106,307.3,-8.06,81.8,55.56666,0,866.6287,0,117.3,2.038,190,0.947,1.583,175.9797,3.234,52.94,61.1,34.02,35.93
"2017-02-21 14:30:00",276196,1.008,323.3,-8.04,81.7,51.07859,0,866.8196,0,117.3,2.037,191,0.936,1.596,171.8442,3.367,53,61.1,34.03,35.93
"2017-02-21 14:40:00",276197,1.305,305.7,-7.883,79.86,55.83683,0,867.051,0,117.1,2.039,190,0.947,1.614,187.0238,3.349,52.94,61.1,34.02,35.93
"2017-02-21 14:50:00",276198,1.334,296.5,-8.08,78.5,48.1896,0,867.0961,0,117,2.04,192,0.984,1.624,159.3683,3.308,52.94,61.1,34.02,35.93
"2017-02-21 15:00:00",276199,1.16,276.5,-8.22,81.2,33.63843,0,867.0765,0,116.9,2.043,190,0.995,1.628,106.2888,3.13,52.94,61.1,34.02,35.93
"2017-02-21 15:10:00",276200,1.174,280.8,-8.61,81.5,24.34897,0,867.119,0,116.9,2.044,189,0.951,1.652,76.24064,3.121,52.94,61.1,34.02,35.93
"2017-02-21 15:20:00",276201,1.33,312.1,-8.8,78.86,20.31771,0,867.2717,0,116.8,2.045,192,0.938,1.625,60.57546,2.987,52.94,61.1,34.02,35.93
"2017-02-21 15:30:00",276202,1.023,299.7,-8.78,78.61,16.93143,0,867.35,0,116.8,2.045,192,0.941,1.627,54.50429,3.227,52.94,61.1,34.02,35.93
"2017-02-21 15:40:00",276203,1.296,307.4,-8.54,79.9,31.72726,0,867.3985,0,116.6,2.046,190,0.961,1.629,107.9392,3.383,52.94,61.1,34.02,35.93
"2017-02-21 15:50:00",276204,1.008,282.9,-8.32,81.4,33.092,0,867.5186,0,116.4,2.047,190,0.935,1.629,113.9952,3.428,52.88,61.1,34,35.93
"2017-02-21 16:00:00",276205,0.844,283.3,-8.39,82.9,23.34217,0,867.7189,0,116.5,2.047,192,0.91,1.629,80.66619,3.455,52.94,61.1,34.02,35.93
"2017-02-21 16:10:00",276206,1.21,279.2,-8.27,83.5,34.5,0,867.6325,0,116.4,2.048,191,0.897,1.629,119.9185,3.472,52.88,61.1,34,35.93
"2017-02-21 16:20:00",276207,0.851,251.4,-8.19,83.7,35.84901,0,867.4933,0,116.2,2.048,191,0.897,1.629,122.9257,3.419,52.94,61.1,34.02,35.93
"2017-02-21 16:30:00",276208,0.836,223.6,-8.09,84.6,19.32719,0,867.5692,0,116.1,2.05,190,0.903,1.637,67.08481,3.452,52.94,61.1,34.02,35.93
"2017-02-21 16:40:00",276209,1.031,274.6,-8.53,82.9,10.63934,0,867.8447,0,116.1,2.052,190,0.929,1.644,34.3171,3.219,52.94,61.1,34.02,35.93
"2017-02-21 16:50:00",276210,0.932,303.7,-8.76,85.1,8.016277,0,867.8464,0,116.1,2.052,189,0.965,1.635,26.00173,3.221,52.94,61.04,34.02,35.92
"2017-02-21 17:00:00",276211,0.793,271.3,-8.75,87.5,5.617106,0,867.977,0,115.9,2.054,191,0.976,1.622,18.69037,3.317,52.94,61.1,34.02,35.93
"2017-02-21 17:10:00",276212,0.988,285.3,-8.83,89.3,5.48763,0,868.1509,0,115.9,2.055,190,0.992,1.632,17.90257,3.257,52.88,61.1,34,35.93
"2017-02-21 17:20:00",276213,1.591,279.9,-8.98,87.6,4.221251,0,868.0048,0,115.9,2.056,189,1.011,1.658,12.54027,2.965,52.88,61.1,34,35.93
"2017-02-21 17:30:00",276214,1.313,281.7,-9.14,87.5,2.592653,0,867.9158,0,115.7,2.058,190,1.021,1.661,8.072226,3.092,52.94,61.1,34.02,35.93
"2017-02-21 17:40:00",276215,0.876,292.3,-9.37,88.2,0.4917849,0,867.9262,0,115.7,2.059,191,1.015,1.625,2.446742,4.061,52.94,61.1,34.02,35.93
"2017-02-21 17:50:00",276216,1.114,280.3,-9.48,85.8,0,0,868.0026,0,115.6,2.06,189,1.001,1.626,0.2617458,0,52.94,61.1,34.02,35.93
"2017-02-21 18:00:00",276217,1.802,282.7,-9.51,84.3,0,0,868.2705,0,115.4,2.062,189,0.989,1.632,0,0,52.94,61.1,34.02,35.93
"2017-02-21 18:10:00",276218,1.487,275.8,-9.55,83.8,0,0,868.26,0.5,115.5,2.062,191,0.955,1.637,0,0,52.88,61.1,34,35.93
"2017-02-21 18:20:00",276219,1.086,255.5,-9.6,83.6,0,0,868.2347,0,115.2,2.065,190,0.917,1.671,0,0,52.88,61.1,34,35.93
"2017-02-21 18:30:00",276220,1.175,268.1,-9.67,84.6,0,0,868.184,0,115.2,2.065,191,0.941,1.681,0,0,52.88,61.1,34,35.93
"2017-02-21 18:40:00",276221,0.736,203.4,-9.83,87.1,0,0,867.7253,0,115.1,2.067,191,0.964,1.698,0,0,52.94,61.1,34.02,35.93
"2017-02-21 18:50:00",276222,0.757,214.3,-10.03,89.2,0,0,867.506,0,115.1,2.068,190,1.001,1.724,0,0,52.88,61.1,34,35.93
"2017-02-21 19:00:00",276223,0.549,220.5,-10.13,89,0,0,867.5299,0,115.1,2.068,191,1.054,1.732,0,0,52.94,61.1,34.02,35.93
"2017-02-21 19:10:00",276224,0.584,247.8,-10.1,87.8,0,0,867.7597,0,115,2.068,190,1.066,1.679,0,0,52.88,61.1,34,35.93
"2017-02-21 19:20:00",276225,0.809,281.7,-10.1,87.1,0,0,867.9056,0,114.8,2.071,190,1.07,1.679,0,0,52.88,61.1,34,35.93
"2017-02-21 19:30:00",276226,0.688,287.7,-10.2,88.3,0,0,868.1536,0,114.9,2.07,190,1.071,1.684,0,0,52.94,61.1,34.02,35.93
"2017-02-21 19:40:00",276227,0.952,297.6,-10.19,88,0,0,868.2847,0,114.9,2.07,191,1.071,1.676,0,0,52.88,61.1,34,35.93
"2017-02-21 19:50:00",276228,0.656,285.4,-10.26,88.4,0,0,868.4851,0,114.6,2.073,190,1.071,1.678,0,0,52.88,61.1,34,35.93
"2017-02-21 20:00:00",276229,0.418,225.5,-10.33,89.8,0,0,868.6137,0,114.8,2.071,189,1.07,1.647,0.01897362,0,52.88,61.1,34,35.93
"2017-02-21 20:10:00",276230,0.453,264.3,-10.19,90.9,0,0,868.7066,0,114.7,2.072,192,1.064,1.647,0.2276834,0,52.88,61.1,34,35.93
"2017-02-21 20:20:00",276231,0.594,189.9,-10.15,91.5,0,0,868.7845,0,114.7,2.072,191,1.055,1.639,0.2276834,0,52.88,61.04,34,35.92
"2017-02-21 20:30:00",276232,0.126,234.1,-10.06,91.6,0,0,868.791,0,114.6,2.073,192,1.057,1.64,0.2276834,0,52.94,61.04,34.02,35.92
"2017-02-21 20:40:00",276233,0.228,219.8,-10.04,91.5,0,0,868.8246,0,114.5,2.074,191,1.055,1.641,0.2276834,0,52.88,61.04,34,35.92
"2017-02-21 20:50:00",276234,0.238,231.8,-10.1,90.5,0,0,868.8226,0,114.4,2.075,189,1.044,1.637,0.05692085,0,52.88,61.04,34,35.92
"2017-02-21 21:00:00",276235,0.147,248,-10.12,90.5,0,0,868.7867,0,114.3,2.076,189,1.022,1.641,0.003794723,0,52.88,61.04,34,35.92
"2017-02-21 21:10:00",276236,0.067,344.5,-10.25,91.9,0,0,868.9491,0,114.3,2.076,191,1.023,1.641,0,0,52.88,61.04,34,35.92
"2017-02-21 21:20:00",276237,0.191,269.6,-10.27,91.6,0,0,869.0039,0,114.2,2.077,191,1.02,1.652,0,0,52.88,61.04,34,35.92
"2017-02-21 21:30:00",276238,0.365,280.2,-10.29,91,0,0,869.0398,0,114.2,2.078,192,1.002,1.652,0,0,52.94,61.04,34.02,35.92
"2017-02-21 21:40:00",276239,0.086,232.7,-10.34,90.9,0,0,869.0398,0,114,2.08,189,0.993,1.652,0,0,52.88,61.04,34,35.92
"2017-02-21 21:50:00",276240,0.161,199.3,-10.53,90.8,0,0,868.8669,0,114,2.081,190,0.976,1.662,0,0,52.88,61.04,34,35.92
"2017-02-21 22:00:00",276241,0.221,198.6,-10.8,90.8,0,0,868.7888,0,113.9,2.083,190,0.956,1.678,0,0,52.88,61.04,34,35.92
"2017-02-21 22:10:00",276242,0.199,200.7,-11.2,90.4,0,0,868.7951,0,113.8,2.086,192,0.971,1.712,0,0,52.88,61.04,34,35.92
"2017-02-21 22:20:00",276243,0.026,188.6,-11.36,90.6,0,0,868.8985,0,113.7,2.087,190,1.052,1.73,0,0,52.83,61.04,33.99,35.92
"2017-02-21 22:30:00",276244,0.541,298.8,-10.94,91.2,0,0,868.9871,0,113.4,2.088,191,1.073,1.744,0.02277457,0,52.88,61.04,34,35.92
"2017-02-21 22:40:00",276245,0.22,13.76,-11.17,88.8,0,0,869.0988,0,113.7,2.085,190,1.068,1.756,0.007591819,0,52.83,61.04,33.99,35.92
"2017-02-21 22:50:00",276246,0.344,26.53,-10.99,88.3,0,0,869.2486,0,114,2.082,191,1.073,1.762,0,0,52.83,61.04,33.99,35.92
"2017-02-21 23:00:00",276247,0.006,342.8,-11.22,86.1,0,0,869.257,0,113.5,2.089,189,1.072,1.765,0.03795997,0,52.88,61.04,34,35.92
"2017-02-21 23:10:00",276248,0.046,48.7,-12.13,87.1,0,0,869.3007,0,113.7,2.091,190,1.073,1.765,0,0,52.83,61.04,33.99,35.92
"2017-02-21 23:20:00",276249,0.116,114.6,-11.55,90.8,0,0,869.293,0,113.7,2.087,190,1.073,1.76,0.1556368,0,52.83,61.04,33.99,35.92
"2017-02-21 23:30:00",276250,0.327,177.8,-11.65,89.2,0,0,869.1116,0,113.6,2.09,191,1.073,1.714,0.0949005,0,52.83,61.04,33.99,35.92
"2017-02-21 23:40:00",276251,0.943,185.9,-11.48,91.4,0,0,868.7932,0,113.5,2.089,191,1.073,1.718,0.1556368,0,52.83,61.04,33.99,35.92
"2017-02-21 23:50:00",276252,0.962,192.8,-11.38,90.4,0,0,868.5921,0,113.4,2.09,190,1.073,1.715,0.00379602,0,52.88,61.04,34,35.92
